Flag for Germany Weather past 2 weeks in Viernheim, Hesse, Germany

59 °F


Feels Like: 60 °F
Forecast: 49 / 63 °F
Wind: 3 mph from North

Location: Baden Wurttemberg - Neuostheim

Current Time: Oct 7, 2015 at 9:40:50 PM

Latest Report: Oct 7, 2015 at 8:50 PM

Visibility: N/A

Pressure: 30.04 "Hg

Humidity: 82%

Dew point: 54 °F

Location of ViernheimLocation

Historic Weather in Viernheim — Graph


Viernheim temperature yesterday

Maximum temperature yesterday: 70 °F (at 1:50 PM)
Minimum temperature yesterday: 59 °F (at 8:20 AM)
Average temperature yesterday: 64 °F

Past Weeks' High & Low Weather Summary

High70 °F (Oct 2, 3:20 PM)100% (Sep 24, 7:50 AM)30.57 "Hg (Sep 24, 7:50 AM)
Low43 °F (Oct 2, 6:20 AM)34% (Sep 29, 12:50 PM)29.62 "Hg (Sep 22, 8:20 PM)
Average59 °F67%30.15 "Hg
* Reported Sep 22 8:20 PM — Oct 7 8:20 PM, Viernheim, Weather by CustomWeather, © 2015

Note: Actual official high and low records may vary slightly from our data, if they occured in-between our weather recording intervals... More about our weather records


Viernheim weather history for previous 24 hours

Time TempWeatherWind HumidityBarometerVisibility
8:20 PM
Wed, Oct 7
59 °FClear.5 mph82%30.04 "HgN/A
7:50 PM59 °FPartly sunny.5 mph82%30.01 "HgN/A
7:20 PM59 °FBroken clouds.6 mph88%30.01 "HgN/A
6:50 PM59 °FMostly cloudy.9 mph82%30.01 "HgN/A
6:20 PM61 °FMore clouds than sun.7 mph72%29.98 "HgN/A
5:50 PM61 °FPartly sunny.6 mph72%29.98 "HgN/A
5:20 PM61 °FBroken clouds.10 mph72%29.98 "HgN/A
4:50 PM61 °FPartly sunny.8 mph72%29.98 "HgN/A
4:20 PM61 °FMostly cloudy.9 mph72%29.98 "HgN/A
3:50 PM61 °FPartly sunny.10 mph72%29.98 "HgN/A
3:20 PM61 °FOvercast.12 mph72%29.95 "HgN/A
2:50 PM61 °FMostly cloudy.10 mph77%29.95 "HgN/A
2:20 PM61 °FMostly cloudy.10 mph77%29.95 "HgN/A
1:50 PM63 °FMore clouds than sun.8 mph68%29.95 "HgN/A
1:20 PM63 °FMore clouds than sun.10 mph68%29.95 "HgN/A
12:50 PM63 °FPartly sunny.8 mph68%29.95 "HgN/A
12:20 PM63 °FBroken clouds.8 mph68%29.92 "HgN/A
11:50 AM63 °FScattered showers. Broken clouds.12 mph68%29.92 "HgN/A
11:20 AM61 °FScattered showers. Broken clouds.8 mph77%29.92 "HgN/A
10:50 AM59 °FScattered showers. Broken clouds.13 mph82%29.92 "HgN/A
10:20 AM63 °FScattered showers. Partly sunny.8 mph77%29.89 "HgN/A
9:50 AM63 °FBroken clouds.8 mph77%29.89 "HgN/A
9:20 AM61 °FBroken clouds.7 mph88%29.86 "HgN/A
8:50 AM61 °FBroken clouds.8 mph88%29.86 "HgN/A
8:20 AM59 °FPartly cloudy.7 mph94%29.83 "HgN/A
7:50 AM59 °FPassing clouds.5 mph94%29.83 "HgN/A
7:20 AM61 °FPassing clouds.6 mph88%29.83 "HgN/A
6:50 AM61 °FOvercast.5 mph94%29.83 "HgN/A
6:20 AM61 °FMostly cloudy.5 mph88%29.80 "HgN/A
5:50 AM61 °FPassing clouds.6 mph88%29.80 "HgN/A
5:20 AM61 °FClear.5 mph94%29.80 "Hg10 mi
9:20 PM
Tue, Oct 6
61 °FPassing clouds.3 mph94%29.74 "HgN/A
Weather by CustomWeather, © 2015

See weather overviewHow to use our weather pages